TITAN 3C TRANSTAGE DEB, 26527

Orbit data source: Space-Track

TITAN 3C TRANSTAGE DEB, 26527 is space debris in HEO originally from a launch on Tue, 21 Dec 1965 UTC launched from the Air Force Eastern Test Range (AFETR). Debris objects in space refer to the collection of defunct objects orbiting the Earth. Examples of debris include non-operational satellites, rocket bodies, and fragments generated from explosions, collisions, or faulty payload assembly.

Loading next visibility...
Identifier
26527, 1965-108AN
Orbit
HEO
Country
Flag of USUS
Related business
Manufacturer
Unknown
Mission
Spacecraft
Bus & Motor
Unknown
Mass
Unknown
Launch date (UTC)
1965-12-21 (60 years ago)
Launch vehicle
Unknown
Launch site
Air Force Eastern Test Range (AFETR)
Object type
Payload
Rocket body
Debris
Shape & HBR
Unknown
Radar Cross Section
Small (<0.1 m²)

Expand to show TLE details & history
Last TLE update: 5 months ago

TLE from 5 months ago
0 TITAN 3C TRANSTAGE DEB
1 26527U 65108AN  25080.34198972  .00000167  00000-0  48222-2 0  9994
2 26527  26.7272 132.7655 6755729 217.5552 156.4621  2.71379379257509
Epoch: 2025-03-21T08:12Z
TLE epoch observation values (Epoch: 2025-03-21T08:12:27.911Z)
Latitude
13.52634°
Longitude
-140.92447°
Altitude
29,561.204 km
Speed
1.956 km/s
True Right ascension
10h 45m 10s
True Declination
13° 30' 39"
Sunlit
Object was in daylight at epoch
Visualization orbit readout
Latitude
Unknown
Longitude
Unknown
Altitude
Unknown
Speed
Unknown
Apparent Right ascension
Unknown
Apparent Declination
Unknown
Sunlit
N/A
Visualization observer readout
Local Sidereal Time
16:05:08
Azimuth
Unknown
Elevation
Unknown
Doppler factor
Unknown
Orbital elements
Apogee altitude
30,006.502 km
Perigee altitude
666.715 km
Semi-major axis
21,714.745 km
Eccentricity
0.67557
Inclination
26.7272°
RAAN
132.7655°
Arg. of periapsis
217.5552°
True anomaly
173.7681°
Mean anomaly
156.4621°
Eccentric anomaly
165.89506°
Mean motion
0.67828 °/min
Orbital period
530.75 mins
BSTAR
0.0048222
Loading maneuver chart data...
Computing Atmospheric mass density...

Documentation

Showing up to 5 results
|